DELTA 1 DEB, 21283

Orbit data source: Space-Track

DELTA 1 DEB, 21283 is space debris in SSO originally from a launch on Thu, 12 Jun 1975 UTC launched from the Air Force Western Test Range (AFWTR). Debris objects in space refer to the collection of defunct objects orbiting the Earth. Examples of debris include non-operational satellites, rocket bodies, and fragments generated from explosions, collisions, or faulty payload assembly.

Loading next visibility...
Identifier
21283, 1975-052U
Orbit
SSO
Country
Flag of USUS
Related business
Manufacturer
Unknown
Mission
Spacecraft
Bus & Motor
Unknown
Mass
Unknown
Launch date (UTC)
1975-06-12 (51 years ago)
Launch vehicle
Unknown
Launch site
Air Force Western Test Range (AFWTR)
Object type
Payload
Rocket body
Debris
Shape & HBR
Unknown shape, 0.4 m
Radar Cross Section
Medium (>0.1 m² and <1 m²)

Expand to show TLE details & history
Last TLE update: 5 hours ago

TLE from 5 hours ago
0 DELTA 1 DEB
1 21283U 75052U   26127.22902242 -.00000501  00000-0 -13814-2 0  9993
2 21283  99.7915 225.4645 0241882 355.9751  57.2406 12.97964033657451
Epoch: 2026-05-07T05:29Z
TLE epoch observation values (Epoch: 2026-05-07T05:29:47.537Z)
Latitude
54.48128°
Longitude
-95.98057°
Altitude
1,182.052 km
Speed
7.314 km/s
True Right ascension
14h 06m 10s
True Declination
54° 19' 39"
Sunlit
Object was in daylight at epoch
Visualization orbit readout
Latitude
Unknown
Longitude
Unknown
Altitude
Unknown
Speed
Unknown
Apparent Right ascension
Unknown
Apparent Declination
Unknown
Sunlit
N/A
Visualization observer readout
Local Sidereal Time
18:16:14
Azimuth
Unknown
Elevation
Unknown
Doppler factor
Unknown
Orbital elements
Apogee altitude
1,452.384 km
Perigee altitude
1,082.518 km
Semi-major axis
7,645.588 km
Eccentricity
0.02419
Inclination
99.7915°
RAAN
225.4645°
Arg. of periapsis
355.9751°
True anomaly
59.60958°
Mean anomaly
57.2406°
Eccentric anomaly
58.42126°
Mean motion
3.24659 °/min
Orbital period
110.89 mins
BSTAR
-0.0013814
Loading maneuver chart data...
Computing Atmospheric mass density...
Loading historical data...
Loading historical data...
Loading historical data...
Loading historical data...
Loading historical data...
Loading historical data...
Loading historical data...

Documentation

Showing up to 5 results
|